Regional Weather Roundup
Issued by NWS

Home | Current Version | Previous Version | Graphics & Text | Print | Product List | Glossary On
Versions: 1 2 3 4 5 6 7 8 9 10 11 12 13 14 15 16 17 18 19 20 21 22 23 24 25 26 27
000
ASUS45 KSLC 172110
RWRUT

UTAH REGIONAL WEATHER ROUNDUP
NATIONAL WEATHER SERVICE SALT LAKE CITY UT
300 PM MDT THU APR 17 2014

UTZ001>011-023>025-172200-

NORTHERN UTAH

CITY           SKY/WX    TMP DP  RH WIND       PRES   REMARKS
HILL AFB       SUNNY     64  21  19 S8        29.99F
LOGAN          SUNNY     62  25  24 SW9G18    29.98F
OGDEN            N/A     65  23  20 MISG      29.97F
PROVO AIRPORT  MOSUNNY   66  28  24 SE7       30.00F
SALT LAKE CITY   N/A     69  26  20 S16G24    29.96F
VERNAL         SUNNY     59  17  19 SE5       30.03F
WENDOVER         N/A     66  27  22 SE9       29.93F
HEBER CITY       N/A     64  23  20 SW12      30.01F
WEST JORDAN    SUNNY     66  34  30 SE20      29.98F

$$

UTZ012>022-026-027-172200-

SOUTHERN UTAH

CITY           SKY/WX    TMP DP  RH WIND       PRES   REMARKS
BRYCE CANYON     N/A     62  28  27 SE15      30.12F
CEDAR CITY       N/A     73  21  14 SW10G20   29.99F
MILFORD          N/A     72  22  15 S15G23    29.97F
MOAB/CYNLANDS  SUNNY     66  17  15 W6        30.02F
PRICE            N/A     63  16  16 MISG      30.06F
ST GEORGE        N/A     81  28  15 CALM      29.91F
KANAB            N/A     73  23  15 S6        30.02F

$$

REGIONAL REPORTS     COLORADO/ARIZONA

CITY           SKY/WX    TMP DP  RH WIND       PRES   REMARKS
CRAIG, CO      SUNNY     58  20  22 VRB7G21   30.05F
GRAND JUNCTION SUNNY     63  23  21 W7        30.05F
RIFLE          SUNNY     64  20  18 W20       30.04F
MONTROSE       SUNNY     65  22  19 MISG      30.08F
CORTEZ         SUNNY     65  19  17 W10       30.10F
PAGE, AZ         N/A     76  27  16 N8        29.99F
GRAND CANYON     N/A     70  18  13 S12G20    30.11F
KINGMAN          N/A     83  15   8 SW24G30   29.94F
FLAGSTAFF        N/A     67  19  16 VRB5G24   30.13F

$$

REGIONAL REPORTS    NEVADA/IDAHO/WYOMING

CITY           SKY/WX    TMP DP  RH WIND       PRES   REMARKS
LAS VEGAS, NV    N/A     88  23   9 VRB5      29.81F
ELY              N/A     70  22  16 SW14G22   29.97F
ELKO             N/A     72  27  18 SW12G21   29.88F
POCATELLO, ID  SUNNY     66  21  18 S12G24    29.93F
BURLEY           N/A     69  30  23 S9G22     29.87F
EVANSTON, WY   SUNNY     56  22  26 SW8G25    30.04F
ROCK SPRINGS   NOT AVBL

$$



USA.gov is the U.S. government's official web portal to all federal, state and local government web resources and services.